Flag for Japan Weather past 2 weeks in Utsunomiya, Japan

Now
30 °F

Chilly.


Feels Like: 30 °F
Forecast: 23 / 40 °F
Wind: 2 mph from South

Location: Mito

Current Time: Dec 26, 2014 at 7:09:06 AM

Latest Report: Dec 26, 2014 at 5:00 AM


Visibility: N/A

Pressure: 30.05 "Hg

Humidity: 71%

Dew point: 22 °F

Location of UtsunomiyaLocation

Historic Weather in Utsunomiya — Graph

°F

Utsunomiya temperature yesterday

Maximum temperature yesterday: 52 °F (at 1:00 PM)
Minimum temperature yesterday: 31 °F (at 1:00 AM)
Average temperature yesterday: 39 °F

Past Weeks' High & Low Weather Summary

 TemperatureHumidityPressure
High52 °F (Dec 13, 1:00 PM)97% (Dec 11, 9:00 PM)30.46 "Hg (Dec 11, 9:00 PM)
Low26 °F (Dec 15, 4:00 AM)23% (Dec 22, 1:00 PM)29.21 "Hg (Dec 16, 9:00 PM)
Average39 °F65%29.92 "Hg
* Reported Dec 11 5:00 AM — Dec 26 5:00 AM, Utsunomiya, Weather by CustomWeather, © 2014

Note: Actual official high and low records may vary slightly from our data, if they occured in-between our weather recording intervals... More about our weather records

Advertising

Utsunomiya weather history for previous 24 hours

 ConditionsComfort  
Time TempWeatherWind HumidityBarometerVisibility
5:00 AM
Dec 26
30 °FChilly.2 mph71%30.05 "HgN/A
4:00 AM29 °FChilly.7 mph74%30.04 "HgN/A
3:00 AM31 °FClear.5 mph68%30.03 "Hg19 mi
2:00 AM33 °FChilly.3 mph60%30.03 "HgN/A
1:00 AM33 °FChilly.5 mph63%30.01 "HgN/A
12:00 AM33 °FChilly.3 mph62%30.01 "HgN/A
11:00 PM
Dec 25
33 °FChilly.3 mph60%30.00 "HgN/A
10:00 PM33 °FChilly.6 mph66%29.98 "HgN/A
9:00 PM33 °FClear.5 mph69%29.98 "Hg19 mi
8:00 PM35 °FChilly.7 mph62%29.97 "HgN/A
7:00 PM36 °FChilly.5 mph56%29.96 "HgN/A
6:00 PM40 °FChilly.5 mph42%29.96 "HgN/A
5:00 PM42 °FQuite cool.6 mph36%29.93 "HgN/A
4:00 PM44 °FQuite cool.5 mph37%29.90 "HgN/A
3:00 PM46 °FPassing clouds.8 mph36%29.88 "Hg25 mi
2:00 PM49 °FCool.10 mph36%29.85 "HgN/A
1:00 PM52 °FCool.13 mph23%29.83 "HgN/A
11:00 AM47 °FCool.2 mph41%29.88 "HgN/A
10:00 AM46 °FCool.3 mph46%29.91 "HgN/A
9:00 AM42 °FPassing clouds.3 mph62%29.91 "Hg25 mi
8:00 AM38 °FChilly.2 mph72%29.90 "HgN/A
7:00 AM36 °FChilly.2 mph75%29.89 "HgN/A
Weather by CustomWeather, © 2014

See weather overviewHow to use our weather pages